Time,TemperatureF,DewpointF,PressureIn,WindDirection,WindDirectionDegrees,WindSpeedMPH,WindSpeedGustMPH,Humidity,HourlyPrecipIn,Conditions,Clouds,dailyrainin,SoftwareType,DateUTC
2013-02-01 00:02:00,16.4,7.7,29.92,West,269,8.0,8.0,68,0.00,,,0.00,VWS V14.01,2013-02-01 05:02:00,
2013-02-01 00:03:00,16.4,7.7,29.92,West,269,8.0,8.0,68,0.00,,,0.00,VWS V14.01,2013-02-01 05:03:00,
2013-02-01 00:04:00,16.4,7.7,29.92,West,269,8.0,8.0,68,0.00,,,0.00,VWS V14.01,2013-02-01 05:04:00,
2013-02-01 00:09:00,16.2,7.5,29.92,West,271,8.0,12.0,68,0.00,,,0.00,VWS V14.01,2013-02-01 05:09:00,
2013-02-01 00:14:00,16.1,7.4,29.92,WNW,289,8.0,12.0,68,0.00,,,0.00,VWS V14.01,2013-02-01 05:14:00,
2013-02-01 00:19:00,16.1,7.4,29.92,NW,309,5.0,12.0,68,0.00,,,0.00,VWS V14.01,2013-02-01 05:19:00,
2013-02-01 00:24:00,16.0,7.6,29.91,NNW,331,5.0,12.0,69,0.00,,,0.00,VWS V14.01,2013-02-01 05:24:00,
2013-02-01 00:29:00,15.9,7.5,29.92,West,263,7.0,14.0,69,0.00,,,0.00,VWS V14.01,2013-02-01 05:29:00,
2013-02-01 00:34:00,15.8,7.4,29.92,West,272,6.0,10.0,69,0.00,,,0.00,VWS V14.01,2013-02-01 05:34:00,
2013-02-01 00:40:00,15.7,7.3,29.92,West,275,7.0,12.0,69,0.00,,,0.00,VWS V14.01,2013-02-01 05:40:00,
2013-02-01 00:45:00,15.5,7.5,29.93,WNW,286,6.0,14.0,70,0.00,,,0.00,VWS V14.01,2013-02-01 05:45:00,
2013-02-01 00:50:00,15.5,7.2,29.93,West,273,9.0,16.0,69,0.00,,,0.00,VWS V14.01,2013-02-01 05:50:00,
2013-02-01 00:55:00,15.5,7.2,29.93,West,278,6.0,16.0,69,0.00,,,0.00,VWS V14.01,2013-02-01 05:55:00,
2013-02-01 01:00:00,15.4,7.4,29.93,West,269,6.0,16.0,70,0.00,,FEW037,0.00,VWS V14.01,2013-02-01 06:00:00,
2013-02-01 01:05:00,15.3,7.6,29.93,West,268,5.0,10.0,71,0.00,,FEW037,0.00,VWS V14.01,2013-02-01 06:05:00,
2013-02-01 01:10:00,15.3,7.6,29.94,West,280,4.0,10.0,71,0.00,,FEW037,0.00,VWS V14.01,2013-02-01 06:10:00,
2013-02-01 01:15:00,15.3,7.6,29.94,WNW,286,6.0,13.0,71,0.00,,FEW037,0.00,VWS V14.01,2013-02-01 06:15:00,
2013-02-01 01:20:00,15.3,7.9,29.94,West,277,7.0,13.0,72,0.00,,FEW037,0.00,VWS V14.01,2013-02-01 06:20:00,
2013-02-01 01:25:00,15.3,7.9,29.95,West,264,8.0,14.0,72,0.00,,FEW037,0.00,VWS V14.01,2013-02-01 06:25:00,
2013-02-01 01:30:00,15.4,8.3,29.95,West,281,7.0,9.0,73,0.00,,FEW037,0.00,VWS V14.01,2013-02-01 06:30:00,
2013-02-01 01:35:00,15.4,8.6,29.95,WSW,255,11.0,12.0,74,0.00,,FEW037,0.00,VWS V14.01,2013-02-01 06:35:00,
2013-02-01 01:40:00,15.5,8.4,29.95,WSW,246,5.0,13.0,73,0.00,,FEW037,0.00,VWS V14.01,2013-02-01 06:40:00,
2013-02-01 01:45:00,15.5,8.7,29.95,West,259,11.0,13.0,74,0.00,,FEW037,0.00,VWS V14.01,2013-02-01 06:45:00,
2013-02-01 01:50:00,15.4,8.9,29.95,WNW,283,9.0,13.0,75,0.00,,FEW037,0.00,VWS V14.01,2013-02-01 06:50:00,
2013-02-01 01:55:00,15.3,9.1,29.96,West,267,6.0,13.0,76,0.00,,FEW037,0.00,VWS V14.01,2013-02-01 06:55:00,
2013-02-01 02:01:00,15.2,9.0,29.96,West,266,6.0,11.0,76,0.00,,BKN100,0.00,VWS V14.01,2013-02-01 07:01:00,
2013-02-01 02:06:00,15.2,9.3,29.96,WNW,284,6.0,12.0,77,0.00,,BKN100,0.00,VWS V14.01,2013-02-01 07:06:00,
2013-02-01 02:11:00,15.1,9.8,29.97,WNW,298,7.0,13.0,79,0.00,,BKN100,0.00,VWS V14.01,2013-02-01 07:11:00,
2013-02-01 02:16:00,14.9,9.9,29.97,WSW,248,6.0,13.0,80,0.00,,BKN100,0.00,VWS V14.01,2013-02-01 07:16:00,
2013-02-01 02:21:00,14.8,10.3,29.97,West,274,9.0,13.0,82,0.00,,BKN100,0.00,VWS V14.01,2013-02-01 07:21:00,
2013-02-01 02:26:00,14.7,10.5,29.97,NW,317,7.0,13.0,83,0.00,,BKN100,0.00,VWS V14.01,2013-02-01 07:26:00,
2013-02-01 02:31:00,14.7,10.8,29.97,WNW,282,6.0,8.0,84,0.00,,BKN100,0.00,VWS V14.01,2013-02-01 07:31:00,
2013-02-01 02:36:00,14.6,10.9,29.97,West,268,3.0,10.0,85,0.00,,BKN100,0.00,VWS V14.01,2013-02-01 07:36:00,
2013-02-01 02:41:00,14.6,11.2,29.98,West,280,6.0,10.0,86,0.00,,BKN100,0.00,VWS V14.01,2013-02-01 07:41:00,
2013-02-01 02:46:00,14.6,10.9,29.98,WNW,289,8.0,12.0,85,0.00,,BKN100,0.00,VWS V14.01,2013-02-01 07:46:00,
2013-02-01 02:51:00,14.8,11.1,29.98,WSW,242,6.0,14.0,85,0.00,,BKN100,0.00,VWS V14.01,2013-02-01 07:51:00,
2013-02-01 02:56:00,14.8,10.9,29.98,WSW,258,7.0,14.0,84,0.00,,BKN100,0.00,VWS V14.01,2013-02-01 07:56:00,
2013-02-01 03:01:00,14.8,10.9,29.99,West,271,7.0,10.0,84,0.00,,BKN100,0.00,VWS V14.01,2013-02-01 08:01:00,
2013-02-01 03:06:00,14.8,10.9,29.99,WNW,284,11.0,17.0,84,0.00,,BKN100,0.00,VWS V14.01,2013-02-01 08:06:00,
2013-02-01 03:11:00,14.8,10.9,29.99,West,276,6.0,17.0,84,0.00,,BKN100,0.00,VWS V14.01,2013-02-01 08:11:00,
2013-02-01 03:16:00,14.7,10.8,30.00,WNW,294,9.0,17.0,84,0.00,,BKN100,0.00,VWS V14.01,2013-02-01 08:16:00,
2013-02-01 03:21:00,14.7,10.8,30.00,WNW,303,9.0,17.0,84,0.00,,BKN100,0.00,VWS V14.01,2013-02-01 08:21:00,
2013-02-01 03:27:00,14.7,10.5,30.00,West,267,9.0,17.0,83,0.00,,BKN100,0.00,VWS V14.01,2013-02-01 08:27:00,
2013-02-01 03:32:00,14.7,9.9,30.00,West,272,10.0,15.0,81,0.00,,BKN100,0.00,VWS V14.01,2013-02-01 08:32:00,
2013-02-01 03:37:00,14.7,9.4,30.01,West,280,16.0,17.0,79,0.00,,BKN100,0.00,VWS V14.01,2013-02-01 08:37:00,
2013-02-01 03:42:00,14.6,9.0,30.01,West,278,7.0,21.0,78,0.00,,BKN100,0.00,VWS V14.01,2013-02-01 08:42:00,
2013-02-01 03:47:00,14.5,9.2,30.02,WNW,287,11.0,21.0,79,0.00,,BKN100,0.00,VWS V14.01,2013-02-01 08:47:00,
2013-02-01 03:52:00,14.5,9.2,30.02,West,275,12.0,21.0,79,0.00,,BKN100,0.00,VWS V14.01,2013-02-01 08:52:00,
2013-02-01 03:57:00,14.5,9.5,30.02,West,267,7.0,21.0,80,0.00,,BKN100,0.00,VWS V14.01,2013-02-01 08:57:00,
2013-02-01 04:02:00,14.5,9.5,30.03,West,278,10.0,12.0,80,0.00,,OVC031,0.00,VWS V14.01,2013-02-01 09:02:00,
2013-02-01 04:07:00,14.4,9.4,30.03,West,263,8.0,16.0,80,0.00,,OVC031,0.00,VWS V14.01,2013-02-01 09:07:00,
2013-02-01 04:12:00,14.4,9.4,30.03,West,271,8.0,16.0,80,0.00,,OVC031,0.00,VWS V14.01,2013-02-01 09:12:00,
2013-02-01 04:17:00,14.4,9.4,30.04,WSW,251,14.0,19.0,80,0.00,,OVC031,0.00,VWS V14.01,2013-02-01 09:17:00,
2013-02-01 04:22:00,14.3,9.3,30.04,West,259,10.0,20.0,80,0.00,,OVC031,0.00,VWS V14.01,2013-02-01 09:22:00,
2013-02-01 04:27:00,14.2,9.2,30.04,NW,311,10.0,20.0,80,0.00,,OVC031,0.00,VWS V14.01,2013-02-01 09:27:00,
2013-02-01 04:32:00,14.2,9.4,30.04,WNW,292,16.0,16.0,81,0.00,,OVC031,0.00,VWS V14.01,2013-02-01 09:32:00,
2013-02-01 04:37:00,14.3,9.3,30.04,West,263,6.0,16.0,80,0.00,,OVC031,0.00,VWS V14.01,2013-02-01 09:37:00,
2013-02-01 04:42:00,14.2,9.7,30.05,WNW,286,7.0,16.0,82,0.00,,OVC031,0.00,VWS V14.01,2013-02-01 09:42:00,
2013-02-01 04:48:00,14.2,9.4,30.04,West,261,7.0,16.0,81,0.00,,OVC031,0.00,VWS V14.01,2013-02-01 09:48:00,
2013-02-01 04:53:00,14.2,9.7,30.05,WSW,254,6.0,16.0,82,0.00,,OVC031,0.00,VWS V14.01,2013-02-01 09:53:00,
2013-02-01 04:58:00,14.0,10.1,30.06,West,276,9.0,16.0,84,0.00,,OVC031,0.00,VWS V14.01,2013-02-01 09:58:00,
2013-02-01 05:03:00,13.7,9.2,30.06,WNW,286,10.0,13.0,82,0.00,,,0.00,VWS V14.01,2013-02-01 10:03:00,
2013-02-01 05:08:00,13.7,9.2,30.07,West,265,9.0,17.0,82,0.00,,,0.00,VWS V14.01,2013-02-01 10:08:00,
2013-02-01 05:13:00,13.6,9.1,30.07,West,270,9.0,17.0,82,0.00,,,0.00,VWS V14.01,2013-02-01 10:13:00,
2013-02-01 05:18:00,13.5,9.0,30.07,West,279,12.0,19.0,82,0.00,,,0.00,VWS V14.01,2013-02-01 10:18:00,
2013-02-01 05:23:00,13.4,8.9,30.08,WNW,302,13.0,19.0,82,0.00,,,0.00,VWS V14.01,2013-02-01 10:23:00,
2013-02-01 05:28:00,13.4,8.9,30.08,West,270,10.0,19.0,82,0.00,,,0.00,VWS V14.01,2013-02-01 10:28:00,
2013-02-01 05:33:00,13.4,8.9,30.08,West,278,13.0,17.0,82,0.00,,,0.00,VWS V14.01,2013-02-01 10:33:00,
2013-02-01 05:38:00,13.4,8.9,30.08,West,271,6.0,17.0,82,0.00,,,0.00,VWS V14.01,2013-02-01 10:38:00,
2013-02-01 05:43:00,13.4,8.9,30.08,West,259,9.0,17.0,82,0.00,,,0.00,VWS V14.01,2013-02-01 10:43:00,
2013-02-01 05:48:00,13.4,8.9,30.09,West,266,9.0,18.0,82,0.00,,,0.00,VWS V14.01,2013-02-01 10:48:00,
2013-02-01 05:53:00,13.4,8.9,30.09,WNW,298,8.0,18.0,82,0.00,,,0.00,VWS V14.01,2013-02-01 10:53:00,
2013-02-01 05:58:00,13.3,8.8,30.09,West,275,12.0,18.0,82,0.00,,,0.00,VWS V14.01,2013-02-01 10:58:00,
2013-02-01 06:03:00,13.2,8.5,30.10,West,270,14.0,21.0,81,0.00,,,0.00,VWS V14.01,2013-02-01 11:03:00,
2013-02-01 06:08:00,13.2,8.5,30.10,West,270,11.0,21.0,81,0.00,,,0.00,VWS V14.01,2013-02-01 11:08:00,
2013-02-01 06:13:00,13.1,8.4,30.10,WNW,288,10.0,21.0,81,0.00,,,0.00,VWS V14.01,2013-02-01 11:13:00,
2013-02-01 06:18:00,13.1,8.6,30.11,West,261,11.0,21.0,82,0.00,,,0.00,VWS V14.01,2013-02-01 11:18:00,
2013-02-01 06:24:00,13.0,8.3,30.12,West,277,12.0,21.0,81,0.00,,,0.00,VWS V14.01,2013-02-01 11:24:00,
2013-02-01 06:29:00,12.8,8.1,30.12,West,279,9.0,21.0,81,0.00,,,0.00,VWS V14.01,2013-02-01 11:29:00,
2013-02-01 06:34:00,12.7,8.0,30.12,WNW,283,10.0,15.0,81,0.00,,,0.00,VWS V14.01,2013-02-01 11:34:00,
2013-02-01 06:39:00,12.6,8.2,30.13,WNW,285,11.0,15.0,82,0.00,,,0.00,VWS V14.01,2013-02-01 11:39:00,
2013-02-01 06:44:00,12.5,8.1,30.13,West,271,14.0,16.0,82,0.00,,,0.00,VWS V14.01,2013-02-01 11:44:00,
2013-02-01 06:49:00,12.4,7.7,30.14,West,275,9.0,17.0,81,0.00,,,0.00,VWS V14.01,2013-02-01 11:49:00,
2013-02-01 06:54:00,12.3,7.9,30.14,West,277,9.0,17.0,82,0.00,,,0.00,VWS V14.01,2013-02-01 11:54:00,
2013-02-01 06:59:00,12.1,8.2,30.14,West,262,9.0,17.0,84,0.00,,,0.00,VWS V14.01,2013-02-01 11:59:00,
2013-02-01 07:04:00,12.1,7.9,30.15,WSW,257,9.0,20.0,83,0.00,,,0.00,VWS V14.01,2013-02-01 12:04:00,
2013-02-01 07:09:00,12.0,7.6,30.15,WSW,254,5.0,20.0,82,0.00,,,0.00,VWS V14.01,2013-02-01 12:09:00,
2013-02-01 07:14:00,11.8,7.1,30.16,West,261,13.0,20.0,81,0.00,,,0.00,VWS V14.01,2013-02-01 12:14:00,
2013-02-01 07:19:00,11.7,7.6,30.16,WSW,250,14.0,20.0,83,0.00,,,0.00,VWS V14.01,2013-02-01 12:19:00,
2013-02-01 07:24:00,11.6,7.2,30.17,West,278,13.0,21.0,82,0.00,,,0.00,VWS V14.01,2013-02-01 12:24:00,
2013-02-01 07:29:00,11.6,7.4,30.17,West,267,10.0,21.0,83,0.00,,,0.00,VWS V14.01,2013-02-01 12:29:00,
2013-02-01 07:35:00,11.4,7.5,30.17,West,275,11.0,15.0,84,0.00,,,0.00,VWS V14.01,2013-02-01 12:35:00,
2013-02-01 07:40:00,11.1,7.0,30.18,West,267,10.0,17.0,83,0.00,,,0.00,VWS V14.01,2013-02-01 12:40:00,
2013-02-01 07:45:00,10.9,6.5,30.18,West,272,14.0,20.0,82,0.00,,,0.00,VWS V14.01,2013-02-01 12:45:00,
2013-02-01 07:50:00,10.7,6.3,30.18,West,273,8.0,20.0,82,0.00,,,0.00,VWS V14.01,2013-02-01 12:50:00,
2013-02-01 07:55:00,10.7,6.6,30.19,West,268,10.0,20.0,83,0.00,,,0.00,VWS V14.01,2013-02-01 12:55:00,
2013-02-01 08:00:00,10.5,6.1,30.19,West,272,10.0,10.0,82,0.00,,,0.00,VWS V14.01,2013-02-01 13:00:00,
2013-02-01 08:05:00,10.4,6.0,30.19,WSW,250,10.0,16.0,82,0.00,,,0.00,VWS V14.01,2013-02-01 13:05:00,
2013-02-01 08:10:00,10.4,6.3,30.19,WNW,288,8.0,17.0,83,0.00,,,0.00,VWS V14.01,2013-02-01 13:10:00,
2013-02-01 08:15:00,10.5,6.4,30.20,West,274,9.0,17.0,83,0.00,,,0.00,VWS V14.01,2013-02-01 13:15:00,
2013-02-01 08:20:00,10.6,6.5,30.21,West,277,7.0,17.0,83,0.00,,,0.00,VWS V14.01,2013-02-01 13:20:00,
2013-02-01 08:25:00,10.6,6.7,30.21,WSW,256,11.0,17.0,84,0.00,,,0.00,VWS V14.01,2013-02-01 13:25:00,
2013-02-01 08:30:00,10.6,6.7,30.21,WSW,256,13.0,14.0,84,0.00,,,0.00,VWS V14.01,2013-02-01 13:30:00,
2013-02-01 08:35:00,10.6,6.5,30.21,WNW,290,8.0,17.0,83,0.00,,,0.00,VWS V14.01,2013-02-01 13:35:00,
2013-02-01 08:40:00,10.8,6.4,30.22,West,261,7.0,17.0,82,0.00,,,0.00,VWS V14.01,2013-02-01 13:40:00,
2013-02-01 08:45:00,10.8,6.4,30.22,West,269,8.0,17.0,82,0.00,,,0.00,VWS V14.01,2013-02-01 13:45:00,
2013-02-01 08:50:00,10.9,6.8,30.23,WSW,253,6.0,17.0,83,0.00,,,0.00,VWS V14.01,2013-02-01 13:50:00,
2013-02-01 08:55:00,10.9,6.8,30.23,WSW,250,14.0,20.0,83,0.00,,,0.00,VWS V14.01,2013-02-01 13:55:00,
2013-02-01 09:00:00,10.9,6.5,30.23,WSW,246,13.0,17.0,82,0.00,,,0.00,VWS V14.01,2013-02-01 14:00:00,
2013-02-01 09:05:00,10.8,6.4,30.24,West,271,5.0,17.0,82,0.00,,,0.00,VWS V14.01,2013-02-01 14:05:00,
2013-02-01 09:10:00,10.9,6.2,30.24,West,274,10.0,17.0,81,0.00,,,0.00,VWS V14.01,2013-02-01 14:10:00,
2013-02-01 09:16:00,10.9,6.5,30.24,West,279,16.0,19.0,82,0.00,,,0.00,VWS V14.01,2013-02-01 14:16:00,
2013-02-01 09:21:00,10.8,6.1,30.25,West,278,12.0,19.0,81,0.00,,,0.00,VWS V14.01,2013-02-01 14:21:00,
2013-02-01 09:26:00,10.8,6.1,30.25,West,281,8.0,19.0,81,0.00,,,0.00,VWS V14.01,2013-02-01 14:26:00,
2013-02-01 09:31:00,10.8,6.1,30.25,WSW,254,12.0,12.0,81,0.00,,,0.00,VWS V14.01,2013-02-01 14:31:00,
2013-02-01 09:36:00,10.9,6.5,30.25,West,264,5.0,14.0,82,0.00,,,0.00,VWS V14.01,2013-02-01 14:36:00,
2013-02-01 09:41:00,11.0,6.3,30.26,West,265,7.0,14.0,81,0.00,,,0.00,VWS V14.01,2013-02-01 14:41:00,
2013-02-01 09:46:00,10.8,5.9,30.26,West,272,11.0,14.0,80,0.00,,,0.00,VWS V14.01,2013-02-01 14:46:00,
2013-02-01 09:51:00,10.9,6.2,30.26,West,260,9.0,16.0,81,0.00,,,0.00,VWS V14.01,2013-02-01 14:51:00,
2013-02-01 09:56:00,10.9,6.2,30.26,West,271,10.0,18.0,81,0.00,,,0.00,VWS V14.01,2013-02-01 14:56:00,
2013-02-01 10:01:00,11.0,6.1,30.27,West,268,11.0,13.0,80,0.00,,,0.00,VWS V14.01,2013-02-01 15:01:00,
2013-02-01 10:06:00,11.1,6.2,30.27,West,275,8.0,13.0,80,0.00,,,0.00,VWS V14.01,2013-02-01 15:06:00,
2013-02-01 10:11:00,11.3,6.3,30.27,West,270,14.0,15.0,80,0.00,,,0.00,VWS V14.01,2013-02-01 15:11:00,
2013-02-01 10:16:00,11.5,6.5,30.27,West,281,12.0,16.0,80,0.00,,,0.00,VWS V14.01,2013-02-01 15:16:00,
2013-02-01 10:21:00,12.4,7.4,30.27,WSW,246,9.0,16.0,80,0.00,,,0.00,VWS V14.01,2013-02-01 15:21:00,
2013-02-01 10:26:00,12.3,6.8,30.28,WSW,240,14.0,18.0,78,0.00,,,0.00,VWS V14.01,2013-02-01 15:26:00,
2013-02-01 10:31:00,12.4,7.1,30.28,West,267,7.0,10.0,79,0.00,,,0.00,VWS V14.01,2013-02-01 15:31:00,
2013-02-01 10:36:00,12.3,6.8,30.28,WSW,258,8.0,13.0,78,0.00,,,0.00,VWS V14.01,2013-02-01 15:36:00,
2013-02-01 10:41:00,12.2,7.2,30.28,West,267,15.0,15.0,80,0.00,,,0.00,VWS V14.01,2013-02-01 15:41:00,
2013-02-01 10:47:00,12.1,7.1,30.29,West,272,8.0,15.0,80,0.00,,,0.00,VWS V14.01,2013-02-01 15:47:00,
2013-02-01 10:52:00,12.7,7.4,30.29,WNW,286,5.0,16.0,79,0.00,,,0.00,VWS V14.01,2013-02-01 15:52:00,
2013-02-01 10:57:00,12.0,6.5,30.29,West,265,13.0,17.0,78,0.00,,,0.00,VWS V14.01,2013-02-01 15:57:00,
2013-02-01 11:02:00,11.8,6.6,30.29,West,269,9.0,13.0,79,0.00,,OVC018,0.00,VWS V14.01,2013-02-01 16:02:00,
2013-02-01 11:07:00,11.9,6.9,30.29,West,271,8.0,13.0,80,0.00,,OVC018,0.00,VWS V14.01,2013-02-01 16:07:00,
2013-02-01 11:12:00,12.1,6.8,30.29,West,267,8.0,14.0,79,0.00,,OVC018,0.00,VWS V14.01,2013-02-01 16:12:00,
2013-02-01 11:17:00,12.2,6.7,30.30,West,278,9.0,14.0,78,0.00,,OVC018,0.00,VWS V14.01,2013-02-01 16:17:00,
2013-02-01 11:22:00,11.8,6.0,30.30,West,269,11.0,15.0,77,0.00,,OVC018,0.00,VWS V14.01,2013-02-01 16:22:00,
2013-02-01 11:27:00,11.8,6.3,30.30,West,271,7.0,16.0,78,0.00,,OVC018,0.00,VWS V14.01,2013-02-01 16:27:00,
2013-02-01 11:32:00,12.3,6.8,30.30,WSW,249,9.0,13.0,78,0.00,,OVC018,0.00,VWS V14.01,2013-02-01 16:32:00,
2013-02-01 11:37:00,12.6,6.8,30.30,West,267,7.0,16.0,77,0.00,,OVC018,0.00,VWS V14.01,2013-02-01 16:37:00,
2013-02-01 11:42:00,12.7,7.2,30.30,WSW,250,13.0,16.0,78,0.00,,OVC018,0.00,VWS V14.01,2013-02-01 16:42:00,
2013-02-01 11:47:00,12.4,6.6,30.30,West,265,12.0,17.0,77,0.00,,OVC018,0.00,VWS V14.01,2013-02-01 16:47:00,
2013-02-01 11:52:00,12.7,7.4,30.30,WSW,252,11.0,17.0,79,0.00,,OVC018,0.00,VWS V14.01,2013-02-01 16:52:00,
2013-02-01 11:57:00,12.5,7.0,30.31,West,274,10.0,17.0,78,0.00,,OVC018,0.00,VWS V14.01,2013-02-01 16:57:00,
2013-02-01 12:02:00,12.9,7.1,30.31,WSW,257,12.0,16.0,77,0.00,,OVC020,0.00,VWS V14.01,2013-02-01 17:02:00,
2013-02-01 12:07:00,13.1,7.8,30.31,WSW,250,10.0,16.0,79,0.00,,OVC020,0.00,VWS V14.01,2013-02-01 17:07:00,
2013-02-01 12:12:00,13.3,7.4,30.30,SW,233,10.0,16.0,77,0.00,,OVC020,0.00,VWS V14.01,2013-02-01 17:12:00,
2013-02-01 12:17:00,14.3,8.4,30.30,WNW,286,7.0,16.0,77,0.00,,OVC020,0.00,VWS V14.01,2013-02-01 17:17:00,
2013-02-01 12:23:00,13.9,7.8,30.30,WNW,285,8.0,16.0,76,0.00,,OVC020,0.00,VWS V14.01,2013-02-01 17:23:00,
2013-02-01 12:28:00,14.4,8.5,30.30,West,259,11.0,16.0,77,0.00,,OVC020,0.00,VWS V14.01,2013-02-01 17:28:00,
2013-02-01 12:33:00,14.4,8.2,30.31,West,271,13.0,13.0,76,0.00,,OVC020,0.00,VWS V14.01,2013-02-01 17:33:00,
2013-02-01 12:38:00,14.0,7.8,30.31,West,260,13.0,15.0,76,0.00,,OVC020,0.00,VWS V14.01,2013-02-01 17:38:00,
2013-02-01 12:43:00,14.6,8.4,30.31,WSW,257,8.0,15.0,76,0.00,,OVC020,0.00,VWS V14.01,2013-02-01 17:43:00,
2013-02-01 12:48:00,13.7,7.0,30.31,West,275,10.0,15.0,74,0.00,,OVC020,0.00,VWS V14.01,2013-02-01 17:48:00,
2013-02-01 12:53:00,14.2,8.3,30.31,WSW,256,11.0,15.0,77,0.00,,OVC020,0.00,VWS V14.01,2013-02-01 17:53:00,
2013-02-01 12:58:00,14.5,7.7,30.31,WSW,251,9.0,16.0,74,0.00,,OVC020,0.00,VWS V14.01,2013-02-01 17:58:00,
2013-02-01 13:03:00,14.5,7.7,30.31,WSW,238,8.0,13.0,74,0.00,,SCT022,0.00,VWS V14.01,2013-02-01 18:03:00,
2013-02-01 13:08:00,14.8,8.6,30.31,West,271,12.0,13.0,76,0.00,,SCT022,0.00,VWS V14.01,2013-02-01 18:08:00,
2013-02-01 13:13:00,14.5,8.3,30.31,West,262,5.0,15.0,76,0.00,,SCT022,0.00,VWS V14.01,2013-02-01 18:13:00,
2013-02-01 13:18:00,14.2,7.7,30.31,West,277,9.0,15.0,75,0.00,,SCT022,0.00,VWS V14.01,2013-02-01 18:18:00,
2013-02-01 13:23:00,14.5,8.3,30.31,West,269,9.0,16.0,76,0.00,,SCT022,0.00,VWS V14.01,2013-02-01 18:23:00,
2013-02-01 13:28:00,14.2,7.4,30.31,WNW,285,13.0,16.0,74,0.00,,SCT022,0.00,VWS V14.01,2013-02-01 18:28:00,
2013-02-01 13:33:00,14.4,8.2,30.31,West,269,12.0,12.0,76,0.00,,SCT022,0.00,VWS V14.01,2013-02-01 18:33:00,
2013-02-01 13:38:00,14.8,8.6,30.31,West,261,13.0,14.0,76,0.00,,SCT022,0.00,VWS V14.01,2013-02-01 18:38:00,
2013-02-01 13:43:00,14.9,7.8,30.31,WNW,283,10.0,14.0,73,0.00,,SCT022,0.00,VWS V14.01,2013-02-01 18:43:00,
2013-02-01 13:48:00,14.8,7.4,30.31,West,270,5.0,14.0,72,0.00,,SCT022,0.00,VWS V14.01,2013-02-01 18:48:00,
2013-02-01 13:53:00,15.0,8.5,30.31,WSW,256,12.0,15.0,75,0.00,,SCT022,0.00,VWS V14.01,2013-02-01 18:53:00,
2013-02-01 13:58:00,15.0,7.9,30.31,WSW,250,9.0,15.0,73,0.00,,SCT022,0.00,VWS V14.01,2013-02-01 18:58:00,
2013-02-01 14:03:00,14.7,7.3,30.31,West,259,10.0,16.0,72,0.00,,OVC060,0.00,VWS V14.01,2013-02-01 19:03:00,
2013-02-01 14:08:00,14.8,7.7,30.31,WNW,293,9.0,16.0,73,0.00,,OVC060,0.00,VWS V14.01,2013-02-01 19:08:00,
2013-02-01 14:13:00,15.3,7.9,30.31,West,264,8.0,16.0,72,0.00,,OVC060,0.00,VWS V14.01,2013-02-01 19:13:00,
2013-02-01 14:19:00,15.4,7.7,30.31,West,275,12.0,17.0,71,0.00,,OVC060,0.00,VWS V14.01,2013-02-01 19:19:00,
2013-02-01 14:24:00,15.4,8.3,30.31,WSW,258,9.0,17.0,73,0.00,,OVC060,0.00,VWS V14.01,2013-02-01 19:24:00,
2013-02-01 14:29:00,15.4,8.3,30.31,WSW,251,9.0,17.0,73,0.00,,OVC060,0.00,VWS V14.01,2013-02-01 19:29:00,
2013-02-01 14:34:00,15.6,8.2,30.32,West,273,10.0,15.0,72,0.00,,OVC060,0.00,VWS V14.01,2013-02-01 19:34:00,
2013-02-01 14:39:00,15.4,8.3,30.32,WSW,251,10.0,15.0,73,0.00,,OVC060,0.00,VWS V14.01,2013-02-01 19:39:00,
2013-02-01 14:44:00,15.5,8.4,30.32,West,265,12.0,15.0,73,0.00,,OVC060,0.00,VWS V14.01,2013-02-01 19:44:00,
2013-02-01 14:49:00,15.4,8.3,30.32,West,271,13.0,16.0,73,0.00,,OVC060,0.00,VWS V14.01,2013-02-01 19:49:00,
2013-02-01 14:54:00,15.2,8.1,30.32,West,261,9.0,17.0,73,0.00,,OVC060,0.00,VWS V14.01,2013-02-01 19:54:00,
2013-02-01 14:59:00,15.3,8.2,30.32,WSW,245,10.0,17.0,73,0.00,,OVC060,0.00,VWS V14.01,2013-02-01 19:59:00,
2013-02-01 15:04:00,15.5,8.1,30.32,West,272,15.0,16.0,72,0.00,,OVC028,0.00,VWS V14.01,2013-02-01 20:04:00,
2013-02-01 15:09:00,15.2,7.8,30.33,West,263,10.0,16.0,72,0.00,,OVC028,0.00,VWS V14.01,2013-02-01 20:09:00,
2013-02-01 15:14:00,15.7,8.0,30.32,WSW,246,9.0,16.0,71,0.00,,OVC028,0.00,VWS V14.01,2013-02-01 20:14:00,
2013-02-01 15:19:00,15.6,8.5,30.33,WSW,249,11.0,18.0,73,0.00,,OVC028,0.00,VWS V14.01,2013-02-01 20:19:00,
2013-02-01 15:24:00,15.4,8.3,30.33,West,273,14.0,18.0,73,0.00,,OVC028,0.00,VWS V14.01,2013-02-01 20:24:00,
2013-02-01 15:29:00,15.3,8.8,30.33,SW,232,8.0,18.0,75,0.00,,OVC028,0.00,VWS V14.01,2013-02-01 20:29:00,
2013-02-01 15:34:00,15.2,9.0,30.33,WSW,257,13.0,16.0,76,0.00,,OVC028,0.00,VWS V14.01,2013-02-01 20:34:00,
2013-02-01 15:39:00,15.3,8.5,30.33,West,268,8.0,16.0,74,0.00,,OVC028,0.00,VWS V14.01,2013-02-01 20:39:00,
2013-02-01 15:44:00,15.1,7.4,30.33,West,263,13.0,16.0,71,0.00,,OVC028,0.00,VWS V14.01,2013-02-01 20:44:00,
2013-02-01 15:49:00,15.1,8.0,30.33,WSW,257,8.0,16.0,73,0.00,,OVC028,0.00,VWS V14.01,2013-02-01 20:49:00,
2013-02-01 15:54:00,15.2,8.1,30.33,WSW,253,13.0,16.0,73,0.00,,OVC028,0.00,VWS V14.01,2013-02-01 20:54:00,
2013-02-01 15:59:00,14.8,8.6,30.34,WSW,248,8.0,16.0,76,0.00,,,0.00,VWS V14.01,2013-02-01 20:59:00,
2013-02-01 16:05:00,14.9,9.0,30.33,West,259,13.0,13.0,77,0.00,,,0.00,VWS V14.01,2013-02-01 21:05:00,
2013-02-01 16:10:00,15.0,8.8,30.33,WSW,255,7.0,13.0,76,0.00,,,0.00,VWS V14.01,2013-02-01 21:10:00,
2013-02-01 16:15:00,15.0,8.5,30.33,WSW,248,8.0,16.0,75,0.00,,,0.00,VWS V14.01,2013-02-01 21:15:00,
2013-02-01 16:20:00,14.9,8.7,30.34,WSW,242,7.0,16.0,76,0.00,,,0.00,VWS V14.01,2013-02-01 21:20:00,
2013-02-01 16:25:00,14.9,9.0,30.34,WSW,246,6.0,16.0,77,0.00,,,0.00,VWS V14.01,2013-02-01 21:25:00,
2013-02-01 16:30:00,14.9,9.9,30.34,SW,219,5.0,5.0,80,0.00,,,0.00,VWS V14.01,2013-02-01 21:30:00,
2013-02-01 16:35:00,14.7,9.7,30.34,WSW,252,8.0,10.0,80,0.00,,,0.00,VWS V14.01,2013-02-01 21:35:00,
2013-02-01 16:40:00,14.9,9.0,30.34,WSW,254,10.0,12.0,77,0.00,,,0.00,VWS V14.01,2013-02-01 21:40:00,
2013-02-01 16:45:00,14.8,8.0,30.33,SW,227,8.0,12.0,74,0.00,,,0.00,VWS V14.01,2013-02-01 21:45:00,
2013-02-01 16:50:00,14.7,8.5,30.34,WSW,255,8.0,14.0,76,0.00,,,0.00,VWS V14.01,2013-02-01 21:50:00,
2013-02-01 16:55:00,14.7,7.9,30.34,WSW,248,7.0,14.0,74,0.00,,,0.00,VWS V14.01,2013-02-01 21:55:00,
2013-02-01 17:00:00,14.6,7.5,30.34,West,269,6.0,8.0,73,0.00,,BKN042,0.00,VWS V14.01,2013-02-01 22:00:00,
2013-02-01 17:05:00,14.7,7.6,30.34,WSW,248,8.0,11.0,73,0.00,,BKN042,0.00,VWS V14.01,2013-02-01 22:05:00,
2013-02-01 17:10:00,14.8,7.7,30.34,WSW,250,6.0,11.0,73,0.00,,BKN042,0.00,VWS V14.01,2013-02-01 22:10:00,
2013-02-01 17:15:00,14.7,7.6,30.34,WSW,247,6.0,12.0,73,0.00,,BKN042,0.00,VWS V14.01,2013-02-01 22:15:00,
2013-02-01 17:20:00,14.8,8.3,30.34,WSW,238,5.0,12.0,75,0.00,,BKN042,0.00,VWS V14.01,2013-02-01 22:20:00,
2013-02-01 17:25:00,14.8,8.0,30.34,WSW,256,9.0,13.0,74,0.00,,BKN042,0.00,VWS V14.01,2013-02-01 22:25:00,
2013-02-01 17:30:00,14.8,8.0,30.34,WSW,252,7.0,8.0,74,0.00,,BKN042,0.00,VWS V14.01,2013-02-01 22:30:00,
2013-02-01 17:35:00,14.7,7.9,30.34,WSW,258,9.0,11.0,74,0.00,,BKN042,0.00,VWS V14.01,2013-02-01 22:35:00,
2013-02-01 17:41:00,14.7,7.6,30.34,WSW,248,6.0,14.0,73,0.00,,BKN042,0.00,VWS V14.01,2013-02-01 22:41:00,
2013-02-01 17:46:00,14.6,7.8,30.34,West,259,9.0,14.0,74,0.00,,BKN042,0.00,VWS V14.01,2013-02-01 22:46:00,
2013-02-01 17:51:00,14.5,7.7,30.35,WSW,240,5.0,14.0,74,0.00,,BKN042,0.00,VWS V14.01,2013-02-01 22:51:00,
2013-02-01 17:56:00,14.5,8.6,30.35,WSW,248,7.0,14.0,77,0.00,,BKN042,0.00,VWS V14.01,2013-02-01 22:56:00,
2013-02-01 18:01:00,14.4,8.5,30.35,SW,232,8.0,8.0,77,0.00,,OVC038,0.00,VWS V14.01,2013-02-01 23:01:00,
2013-02-01 18:06:00,14.5,8.6,30.35,SW,236,7.0,9.0,77,0.00,,OVC038,0.00,VWS V14.01,2013-02-01 23:06:00,
2013-02-01 18:11:00,14.6,8.1,30.35,WSW,238,9.0,11.0,75,0.00,,OVC038,0.00,VWS V14.01,2013-02-01 23:11:00,
2013-02-01 18:16:00,14.7,7.9,30.35,SW,223,4.0,11.0,74,0.00,,OVC038,0.00,VWS V14.01,2013-02-01 23:16:00,
2013-02-01 18:21:00,14.6,7.5,30.35,WSW,238,10.0,11.0,73,0.00,,OVC038,0.00,VWS V14.01,2013-02-01 23:21:00,
2013-02-01 18:26:00,14.6,7.5,30.35,WSW,254,7.0,12.0,73,0.00,,OVC038,0.00,VWS V14.01,2013-02-01 23:26:00,
2013-02-01 18:31:00,14.6,7.5,30.35,WSW,248,8.0,9.0,73,0.00,,OVC038,0.00,VWS V14.01,2013-02-01 23:31:00,
2013-02-01 18:36:00,14.5,7.1,30.36,SW,234,6.0,10.0,72,0.00,,OVC038,0.00,VWS V14.01,2013-02-01 23:36:00,
2013-02-01 18:41:00,14.4,7.9,30.36,WSW,246,6.0,12.0,75,0.00,,OVC038,0.00,VWS V14.01,2013-02-01 23:41:00,
2013-02-01 18:46:00,14.4,8.2,30.36,SW,216,5.0,12.0,76,0.00,,OVC038,0.00,VWS V14.01,2013-02-01 23:46:00,
2013-02-01 18:51:00,14.3,8.1,30.36,SW,235,8.0,12.0,76,0.00,,OVC038,0.00,VWS V14.01,2013-02-01 23:51:00,
2013-02-01 18:56:00,14.2,8.3,30.36,WSW,244,6.0,12.0,77,0.00,,OVC038,0.00,VWS V14.01,2013-02-01 23:56:00,
2013-02-01 19:01:00,14.2,8.3,30.36,SW,227,6.0,10.0,77,0.00,,OVC033,0.00,VWS V14.01,2013-02-02 00:01:00,
2013-02-01 19:06:00,14.3,8.7,30.36,WSW,240,3.0,10.0,78,0.00,,OVC033,0.00,VWS V14.01,2013-02-02 00:06:00,
2013-02-01 19:11:00,14.2,8.6,30.36,WSW,255,7.0,10.0,78,0.00,,OVC033,0.00,VWS V14.01,2013-02-02 00:11:00,
2013-02-01 19:16:00,14.2,8.6,30.36,WSW,246,5.0,11.0,78,0.00,,OVC033,0.00,VWS V14.01,2013-02-02 00:16:00,
2013-02-01 19:22:00,14.2,8.3,30.37,WSW,237,5.0,11.0,77,0.00,,OVC033,0.00,VWS V14.01,2013-02-02 00:22:00,
2013-02-01 19:27:00,14.2,8.3,30.36,WSW,246,5.0,11.0,77,0.00,,OVC033,0.00,VWS V14.01,2013-02-02 00:27:00,
2013-02-01 19:32:00,14.3,8.4,30.36,WSW,245,3.0,6.0,77,0.00,,OVC033,0.00,VWS V14.01,2013-02-02 00:32:00,
2013-02-01 19:37:00,14.3,7.8,30.36,WSW,238,7.0,8.0,75,0.00,,OVC033,0.00,VWS V14.01,2013-02-02 00:37:00,
2013-02-01 19:45:00,14.2,7.7,30.36,South,191,5.0,7.0,75,0.00,,,0.00,VWS V14.01,2013-02-02 00:45:00,
2013-02-01 19:50:00,14.2,7.4,30.36,WSW,248,9.0,11.0,74,0.00,,,0.00,VWS V14.01,2013-02-02 00:50:00,
2013-02-01 19:55:00,14.1,7.3,30.36,WSW,248,10.0,12.0,74,0.00,,,0.00,VWS V14.01,2013-02-02 00:55:00,
2013-02-01 20:00:00,14.1,7.7,30.36,WSW,246,7.0,7.0,75,0.00,,,0.00,VWS V14.01,2013-02-02 01:00:00,
2013-02-01 20:05:00,13.9,7.2,30.36,WSW,246,10.0,13.0,74,0.00,,OVC029,0.00,VWS V14.01,2013-02-02 01:05:00,
2013-02-01 20:10:00,13.9,7.4,30.37,WSW,253,7.0,13.0,75,0.00,,OVC029,0.00,VWS V14.01,2013-02-02 01:10:00,
2013-02-01 20:15:00,13.9,7.4,30.37,WSW,244,6.0,13.0,75,0.00,,OVC029,0.00,VWS V14.01,2013-02-02 01:15:00,
2013-02-01 20:20:00,13.7,7.0,30.37,SW,226,7.0,13.0,74,0.00,,OVC029,0.00,VWS V14.01,2013-02-02 01:20:00,
2013-02-01 20:25:00,13.5,6.8,30.37,SW,229,8.0,16.0,74,0.00,,OVC029,0.00,VWS V14.01,2013-02-02 01:25:00,
2013-02-01 20:30:00,13.3,6.6,30.37,WSW,254,8.0,8.0,74,0.00,,OVC029,0.00,VWS V14.01,2013-02-02 01:30:00,
2013-02-01 20:35:00,13.3,6.9,30.37,WSW,248,5.0,14.0,75,0.00,,OVC029,0.00,VWS V14.01,2013-02-02 01:35:00,
2013-02-01 20:40:00,13.3,6.9,30.38,WSW,250,7.0,14.0,75,0.00,,OVC029,0.00,VWS V14.01,2013-02-02 01:40:00,
2013-02-01 20:45:00,13.0,6.3,30.38,SW,221,8.0,14.0,74,0.00,,OVC029,0.00,VWS V14.01,2013-02-02 01:45:00,
2013-02-01 20:50:00,12.9,6.5,30.38,West,265,7.0,14.0,75,0.00,,OVC029,0.00,VWS V14.01,2013-02-02 01:50:00,
2013-02-01 20:55:00,12.8,6.1,30.38,WSW,242,8.0,15.0,74,0.00,,OVC029,0.00,VWS V14.01,2013-02-02 01:55:00,
2013-02-01 21:00:00,12.7,6.3,30.38,West,272,8.0,11.0,75,0.00,,OVC027,0.00,VWS V14.01,2013-02-02 02:00:00,
2013-02-01 21:05:00,12.8,6.4,30.38,WSW,251,11.0,13.0,75,0.00,,OVC027,0.00,VWS V14.01,2013-02-02 02:05:00,
2013-02-01 21:10:00,12.8,6.7,30.38,WSW,248,12.0,13.0,76,0.00,,OVC027,0.00,VWS V14.01,2013-02-02 02:10:00,
2013-02-01 21:15:00,12.8,6.4,30.38,WSW,255,8.0,13.0,75,0.00,,OVC027,0.00,VWS V14.01,2013-02-02 02:15:00,
2013-02-01 21:21:00,12.9,6.8,30.37,SW,231,7.0,13.0,76,0.00,,OVC027,0.00,VWS V14.01,2013-02-02 02:21:00,
2013-02-01 21:26:00,13.0,6.6,30.38,WSW,241,6.0,17.0,75,0.00,,OVC027,0.00,VWS V14.01,2013-02-02 02:26:00,
2013-02-01 21:31:00,13.0,6.3,30.38,WSW,237,6.0,9.0,74,0.00,,OVC027,0.00,VWS V14.01,2013-02-02 02:31:00,
2013-02-01 21:36:00,13.0,6.6,30.38,SW,231,7.0,13.0,75,0.00,,OVC027,0.00,VWS V14.01,2013-02-02 02:36:00,
2013-02-01 21:41:00,13.0,6.9,30.38,WSW,239,5.0,13.0,76,0.00,,OVC027,0.00,VWS V14.01,2013-02-02 02:41:00,
2013-02-01 21:46:00,13.0,6.6,30.38,WSW,242,6.0,13.0,75,0.00,,OVC027,0.00,VWS V14.01,2013-02-02 02:46:00,
2013-02-01 21:51:00,13.0,6.6,30.38,WSW,252,10.0,13.0,75,0.00,,OVC027,0.00,VWS V14.01,2013-02-02 02:51:00,
2013-02-01 21:56:00,13.0,6.6,30.38,WSW,252,6.0,13.0,75,0.00,,OVC027,0.00,VWS V14.01,2013-02-02 02:56:00,
2013-02-01 22:01:00,13.1,7.3,30.37,WSW,248,6.0,9.0,77,0.00,,OVC027,0.00,VWS V14.01,2013-02-02 03:01:00,
2013-02-01 22:06:00,13.1,7.0,30.37,SW,229,3.0,9.0,76,0.00,,OVC027,0.00,VWS V14.01,2013-02-02 03:06:00,
2013-02-01 22:11:00,13.0,7.2,30.37,SW,229,4.0,9.0,77,0.00,,OVC027,0.00,VWS V14.01,2013-02-02 03:11:00,
2013-02-01 22:16:00,13.0,7.7,30.38,WSW,246,6.0,9.0,79,0.00,,OVC027,0.00,VWS V14.01,2013-02-02 03:16:00,
2013-02-01 22:21:00,13.0,7.4,30.38,SW,226,4.0,9.0,78,0.00,,OVC027,0.00,VWS V14.01,2013-02-02 03:21:00,
2013-02-01 22:26:00,13.0,7.4,30.37,SW,221,3.0,9.0,78,0.00,,OVC027,0.00,VWS V14.01,2013-02-02 03:26:00,
2013-02-01 22:31:00,13.0,7.2,30.37,SSW,212,7.0,10.0,77,0.00,,OVC027,0.00,VWS V14.01,2013-02-02 03:31:00,
2013-02-01 22:37:00,12.9,6.8,30.37,SW,234,6.0,11.0,76,0.00,,OVC027,0.00,VWS V14.01,2013-02-02 03:37:00,
2013-02-01 22:42:00,12.8,6.7,30.37,SSW,200,5.0,11.0,76,0.00,,OVC027,0.00,VWS V14.01,2013-02-02 03:42:00,
2013-02-01 22:47:00,12.9,6.8,30.37,SSW,208,4.0,11.0,76,0.00,,OVC027,0.00,VWS V14.01,2013-02-02 03:47:00,
2013-02-01 22:52:00,12.9,6.8,30.36,SSW,192,9.0,16.0,76,0.00,,OVC027,0.00,VWS V14.01,2013-02-02 03:52:00,
2013-02-01 22:57:00,12.6,5.9,30.36,SW,235,10.0,16.0,74,0.00,,OVC027,0.00,VWS V14.01,2013-02-02 03:57:00,
2013-02-01 23:02:00,12.5,5.8,30.36,SW,217,5.0,9.0,74,0.00,,,0.00,VWS V14.01,2013-02-02 04:02:00,
2013-02-01 23:07:00,12.5,5.5,30.36,WSW,244,6.0,10.0,73,0.00,,,0.00,VWS V14.01,2013-02-02 04:07:00,
2013-02-01 23:12:00,12.6,5.9,30.37,SW,223,4.0,11.0,74,0.00,,,0.00,VWS V14.01,2013-02-02 04:12:00,
2013-02-01 23:17:00,12.6,6.5,30.36,SSW,194,8.0,11.0,76,0.00,,,0.00,VWS V14.01,2013-02-02 04:17:00,
2013-02-01 23:22:00,12.6,6.2,30.37,SW,218,4.0,11.0,75,0.00,,,0.00,VWS V14.01,2013-02-02 04:22:00,
2013-02-01 23:27:00,12.5,6.1,30.37,SSW,200,7.0,11.0,75,0.00,,,0.00,VWS V14.01,2013-02-02 04:27:00,
2013-02-01 23:32:00,12.5,6.1,30.37,SSW,212,7.0,10.0,75,0.00,,,0.00,VWS V14.01,2013-02-02 04:32:00,
2013-02-01 23:37:00,12.3,5.9,30.36,SW,231,9.0,12.0,75,0.00,,,0.00,VWS V14.01,2013-02-02 04:37:00,
2013-02-01 23:43:00,12.3,6.2,30.36,SW,236,4.0,12.0,76,0.00,,,0.00,VWS V14.01,2013-02-02 04:43:00,
2013-02-01 23:48:00,12.3,5.9,30.36,SW,223,5.0,12.0,75,0.00,,,0.00,VWS V14.01,2013-02-02 04:48:00,
2013-02-01 23:53:00,12.3,6.2,30.37,SSW,207,3.0,12.0,76,0.00,,,0.00,VWS V14.01,2013-02-02 04:53:00,
2013-02-01 23:58:00,12.5,6.7,30.37,SW,223,3.0,12.0,77,0.00,,,0.00,VWS V14.01,2013-02-02 04:58:00,